Temperature
22 24 25 25 25 24 23 21 21 21 21 21 20 20 20 20 20 19 19 19 19 19 19 19 18 18 18 18 17 17 17 17 17 17 17 16 16 16 16 16 16 16 16 16
23 24 24 24 24 24 24 23 22 21 20 20 20 20 19 20 19 19 19 19 19 19 19 19 18 18 18 18 17 17 17 17 17 16 16 16 16 16 16 16 15 15 15 15
20 22 23 22 23 23 22 22 22 20 19 19 18 18 18 19 19 19 19 19 19 19 19 19 18 18 18 18 17 17 17 17 16 16 16 16 16 15 15 15 15 15 15 14
18 21 21 20 22 22 21 20 20 19 19 18 17 17 18 19 19 19 19 19 19 19 18 18 18 18 18 18 17 17 17 16 16 16 16 16 15 15 15 15 14 14 14 14
16 18 20 21 21 21 20 18 19 18 18 18 18 17 17 18 18 18 18 19 18 18 18 18 18 18 17 17 17 17 17 16 16 16 16 16 15 15 14 14 14 13 13 13
17 19 19 19 21 21 19 17 18 18 17 18 18 16 16 17 17 17 18 18 18 18 18 18 17 17 17 17 17 16 16 16 16 16 15 15 14 14 13 13 13 12 12 11
16 17 18 19 20 21 19 17 17 18 17 17 16 16 16 16 16 17 17 17 17 17 17 17 17 17 16 16 16 16 16 15 15 15 14 14 13 13 13 12 12 11 11 11
15 16 17 18 18 17 16 17 17 17 17 16 16 16 16 16 16 16 16 16 16 16 16 16 16 16 16 15 15 15 15 14 14 14 13 13 13 12 12 11 11 10 10 10
14 15 15 16 16 16 17 16 16 16 16 15 15 15 15 15 15 15 15 15 15 15 15 15 15 15 15 14 14 14 14 13 13 13 12 12 12 11 11 10 10 10 9 9
14 14 14 15 15 16 16 15 15 15 15 15 14 14 14 14 14 14 14 14 14 14 14 14 14 14 14 13 13 13 13 12 12 12 11 11 10 10 10 10 9 9 9 9
14 14 14 14 14 14 14 14 14 14 14 14 14 13 13 13 13 13 13 13 13 13 13 13 13 12 12 12 12 12 12 11 11 10 10 10 9 9 9 9 9 9 8 8
14 14 13 12 13 13 13 13 13 13 13 13 13 12 12 12 12 12 12 12 12 12 12 11 12 11 11 11 11 11 11 10 10 10 9 9 9 8 8 8 8 7 7 7
15 14 13 12 12 12 12 12 12 12 12 12 12 12 11 11 11 11 11 11 11 11 11 11 11 10 10 10 11 11 10 10 9 9 9 9 8 8 7 7 7 7 6 6
14 14 12 11 11 11 11 11 11 11 11 11 11 10 10 10 10 10 10 10 10 10 10 10 10 10 10 10 10 10 9 9 9 8 8 8 8 8 7 7 6 6 6 5
13 13 12 11 10 10 10 10 10 10 10 10 10 9 9 9 9 9 9 9 9 9 9 9 9 9 9 9 9 9 9 8 8 8 8 8 7 7 7 6 6 6 5 5
12 12 11 10 10 9 9 9 9 9 9 9 9 9 9 9 9 8 8 9 9 8 8 9 8 8 8 9 9 8 8 8 8 8 8 7 7 7 6 6 6 5 5 5
11 10 9 9 9 9 9 9 9 9 9 8 8 8 8 8 8 8 8 8 8 8 8 8 8 8 8 8 8 8 8 8 8 8 7 7 7 7 6 6 5 5 5 4
13 12 11 10 9 9 9 9 9 9 8 8 8 8 8 8 8 8 8 8 8 8 8 8 8 8 8 8 8 8 8 8 8 7 7 7 7 6 6 6 5 5 4 4
12 11 10 10 10 9 9 9 9 9 8 8 8 8 8 8 8 8 8 8 8 8 8 8 8 8 8 8 8 8 8 8 7 7 7 7 6 6 6 5 5 4 4 4
11 11 10 10 9 9 9 9 9 8 8 8 8 8 8 8 8 8 8 8 8 8 8 8 8 8 8 8 8 8 8 7 7 7 7 6 6 6 5 5 5 4 4 4
11 10 10 10 9 9 9 9 9 9 9 9 9 8 8 8 8 8 8 8 7 8 8 8 8 8 8 8 8 7 7 7 7 7 6 6 6 5 5 5 5 4 4 3
10 10 10 10 10 9 9 9 9 9 9 9 9 9 8 8 8 8 8 8 8 8 8 8 7 7 7 7 7 7 7 7 7 6 6 6 6 5 5 5 4 4 4 3
10 10 10 10 10 10 9 9 9 9 9 9 9 9 9 8 8 8 8 8 8 7 7 7 7 7 7 7 7 7 7 6 6 6 6 6 5 5 5 4 4 4 4 3
10 10 10 10 10 10 9 9 9 9 9 9 9 9 9 8 8 8 8 8 7 7 7 7 7 7 7 7 7 7 6 6 6 6 6 5 5 5 5 4 4 4 4 3
10 10 10 10 10 10 9 9 9 9 9 9 9 8 9 9 9 8 8 8 7 7 7 7 7 7 7 7 6 6 6 6 6 6 5 5 5 5 5 4 4 4 4 3
10 10 10 10 10 10 9 9 9 9 9 9 9 8 8 8 8 8 8 8 7 7 7 7 7 6 6 6 6 6 6 6 6 5 5 5 5 5 4 4 4 4 4 4
9 9 9 9 9 9 9 9 9 9 9 9 9 9 8 8 8 8 8 7 7 7 7 7 6 6 6 6 6 6 6 6 5 5 5 5 5 5 5 4 4 4 4 4
Wind_Speed
4 4 2 1 1 2 3 7 6 5 5 7 9 9 8 7 7 7 8 9 11 11 10 9 9 9 9 9 9 9 10 10 9 9 9 8 8 7 7 7 8 7 7 7
2 2 3 2 2 0 1 3 5 6 1 2 4 5 4 5 7 7 8 8 8 10 11 11 11 10 10 9 9 9 10 9 8 9 9 9 9 9 9 9 9 9 9 8
1 3 5 1 2 2 3 2 5 5 4 4 6 5 3 4 5 6 7 7 7 8 10 10 10 10 10 10 9 10 9 9 9 9 9 9 10 9 10 10 11 11 10 10
2 3 3 7 2 8 11 9 7 7 5 6 7 6 5 4 5 4 4 5 5 7 7 7 7 8 8 9 10 10 9 9 9 9 9 10 10 11 11 10 11 11 10 10
4 3 4 4 3 3 8 6 5 7 7 6 7 6 5 4 3 3 3 2 2 4 6 6 7 8 9 9 9 9 9 9 9 10 11 11 11 12 12 12 12 11 10 10
4 4 5 4 4 2 10 4 2 5 5 3 3 3 1 1 3 4 4 3 3 4 5 7 7 8 9 9 10 10 10 10 10 11 12 12 12 13 12 13 13 12 12 11
4 3 3 4 4 3 4 6 2 4 4 3 2 3 3 3 3 4 4 4 4 6 6 5 6 9 10 10 9 10 11 12 12 12 12 13 13 12 13 13 13 13 13 11
3 3 5 5 4 3 4 3 3 4 4 4 4 4 5 4 4 5 5 5 6 7 6 5 6 10 12 11 11 12 13 14 13 12 12 13 13 12 12 14 14 13 12 10
4 4 2 2 4 3 3 3 2 2 3 4 5 4 4 4 4 5 5 5 6 8 9 7 6 9 13 12 12 14 15 15 14 14 12 12 13 13 12 11 11 10 9 8
1 1 2 4 5 5 4 3 1 1 2 4 5 6 5 5 5 5 5 6 7 9 10 9 9 10 12 12 13 16 16 15 14 14 13 12 10 9 9 9 10 9 8 7
1 2 2 3 3 3 3 3 2 2 2 4 6 7 6 6 6 6 7 7 8 10 11 11 11 12 13 13 15 17 17 15 14 13 13 13 11 9 8 6 8 10 7 7
5 5 4 2 0 2 3 3 3 4 4 4 7 8 8 7 7 8 9 9 11 12 13 13 13 14 12 12 15 17 15 14 12 11 11 11 13 12 16 13 14 14 11 9
4 4 5 4 3 3 3 4 5 6 7 8 8 9 11 11 10 11 11 12 13 13 13 14 14 13 11 11 13 15 14 13 11 11 10 10 11 12 11 10 13 12 11 11
9 7 5 3 3 4 6 7 9 10 10 10 11 12 13 13 13 14 13 12 13 14 14 14 14 12 10 11 13 14 13 13 12 10 9 9 9 9 9 9 7 4 5 6
5 5 7 7 7 7 7 9 11 11 12 12 12 13 14 15 15 13 12 12 13 14 13 13 14 11 9 11 13 13 11 9 9 9 9 8 8 7 7 7 6 4 3 4
8 10 11 11 10 9 9 10 11 11 11 12 12 13 13 14 14 13 11 11 13 13 11 12 11 9 9 11 12 10 10 14 12 9 9 8 8 7 7 6 5 4 3 2
11 10 11 11 11 10 9 9 11 11 12 13 13 13 13 14 13 12 11 10 12 11 10 10 9 8 9 10 10 8 8 10 14 10 8 8 8 7 7 6 5 4 3 4
11 11 12 14 13 13 12 11 11 12 12 12 13 12 12 13 13 12 11 12 12 11 9 8 8 9 9 8 8 7 8 7 7 8 8 7 7 7 7 7 6 6 4 4
12 13 13 12 12 12 12 12 11 11 11 11 12 12 11 11 11 11 11 11 11 9 6 7 11 9 8 9 10 7 8 8 8 7 7 9 8 7 7 7 6 6 5 4
13 14 14 13 12 12 12 12 11 11 10 11 12 12 11 11 10 10 10 8 6 5 6 8 9 8 7 8 11 8 8 9 8 7 7 7 7 6 6 7 6 5 5 4
15 14 14 13 12 11 11 11 11 11 11 11 11 11 11 10 9 9 9 7 4 5 7 9 7 6 6 7 10 7 7 7 7 7 7 7 7 6 6 6 6 5 5 4
13 13 14 13 12 11 10 10 11 12 11 10 10 11 11 10 9 8 6 5 5 7 6 5 5 7 8 9 7 7 7 7 6 6 6 6 6 6 6 6 5 5 4 4
11 12 12 11 11 11 11 10 10 11 10 10 10 10 10 8 7 8 6 3 5 8 6 4 7 11 11 7 6 6 6 7 7 6 6 6 6 6 6 6 5 4 4 4
12 12 11 10 11 12 11 9 9 9 9 9 9 9 9 8 5 4 5 8 9 9 6 7 10 11 9 5 5 6 6 6 6 6 6 6 5 5 5 5 4 4 4 5
11 11 11 11 10 9 9 10 10 10 9 7 7 7 6 6 6 6 6 8 10 9 5 6 9 10 7 5 5 5 5 5 6 6 5 5 5 5 5 5 5 4 4 4
10 9 9 9 8 8 7 8 7 6 7 7 6 6 6 6 7 7 6 7 9 8 6 4 4 5 4 4 5 5 5 5 6 5 5 5 5 5 5 5 6 5 4 5
10 8 8 7 7 6 7 7 7 6 6 7 7 6 7 6 6 6 7 6 6 5 5 4 4 4 4 4 4 4 5 5 5 5 5 5 5 5 5 6 5 5 6 6
Wind_Direction
184 197 155 183 205 136 145 173 176 205 183 212 207 190 183 176 173 172 168 171 177 174 171 173 172 171 171 173 170 167 164 167 170 164 155 147 142 136 129 123 120 114 107 97
8 12 60 37 337 3 125 140 143 129 109 250 152 132 131 154 158 171 176 175 178 177 173 178 179 174 171 168 164 158 161 165 158 150 146 143 140 131 121 112 103 98 95 93
306 351 51 343 271 89 71 63 132 143 179 137 98 97 123 143 153 165 174 168 169 181 183 181 178 171 171 168 157 153 155 154 150 147 141 137 133 123 118 113 107 100 94 90
129 66 216 246 278 105 91 60 69 97 100 109 118 107 80 92 122 131 160 168 173 177 176 178 171 165 162 156 151 150 151 150 146 139 133 129 124 120 115 110 105 101 95 90
124 163 255 303 357 112 113 67 47 96 93 111 131 88 49 39 84 115 113 126 164 166 154 159 158 154 149 148 145 144 146 145 141 136 132 128 125 122 118 111 105 99 95 89
129 152 207 248 303 94 105 95 16 94 93 93 108 101 219 58 81 81 78 77 105 122 126 142 151 144 140 141 139 141 138 131 126 125 124 124 123 119 115 111 108 102 91 84
148 180 233 272 308 49 128 187 173 101 99 97 132 177 166 128 100 89 90 80 99 113 121 134 140 136 133 129 129 127 120 116 113 111 113 116 115 116 117 115 110 103 96 84
138 167 233 317 42 105 172 164 108 92 93 106 125 116 116 116 108 97 93 89 104 113 113 112 124 131 128 124 121 115 110 107 105 105 108 110 112 112 114 117 112 107 99 85
180 192 232 35 99 100 112 112 99 101 106 128 139 142 130 112 105 101 102 102 104 110 103 96 104 120 122 120 118 112 106 103 100 96 94 98 105 110 111 112 114 110 105 96
101 122 78 58 59 49 56 78 74 127 153 162 164 152 134 117 106 99 98 103 106 105 104 97 95 99 108 112 113 110 107 103 100 98 91 84 85 93 105 111 114 113 111 105
133 146 86 44 40 43 41 46 48 75 132 152 147 142 134 121 114 108 98 98 101 104 104 101 100 98 102 107 109 108 106 103 99 95 96 88 78 70 86 86 118 123 122 123
205 196 172 189 91 56 61 59 73 99 99 111 128 130 123 118 112 106 102 100 101 101 101 100 98 96 97 103 109 111 109 108 107 105 102 102 98 82 60 75 88 98 110 113
151 132 127 133 94 66 83 82 86 99 110 110 108 114 113 107 101 99 98 99 101 101 101 99 96 95 97 103 108 110 114 115 114 114 114 112 111 111 101 70 66 79 92 98
120 114 114 110 99 83 91 93 94 92 94 101 106 106 106 103 100 97 97 97 98 98 98 99 99 96 96 101 105 109 114 119 122 123 123 121 120 119 121 121 109 73 58 78
120 120 130 121 109 99 100 104 104 101 99 99 104 107 107 107 105 101 99 99 97 96 97 98 98 97 98 102 105 109 114 121 123 126 128 127 127 123 120 118 116 106 69 47
123 117 122 122 119 115 114 115 114 111 109 108 107 108 107 107 106 104 103 102 101 100 101 102 103 106 103 103 104 104 109 116 119 121 122 122 124 124 123 123 120 111 100 95
137 139 139 136 132 127 123 122 121 118 115 113 113 112 111 109 106 104 101 99 100 101 102 104 107 105 101 103 105 107 108 113 114 114 118 122 126 128 129 128 127 123 120 123
143 145 146 143 139 133 127 122 121 121 121 121 120 118 116 114 112 110 108 104 99 93 93 104 107 103 101 106 111 111 109 109 110 113 115 116 121 125 127 127 128 125 118 105
132 135 136 134 134 133 131 129 127 124 123 123 122 119 116 114 114 113 110 107 108 106 104 108 108 103 105 111 113 110 110 110 108 108 111 115 116 119 123 126 128 131 130 120
131 133 132 131 130 131 132 131 128 124 124 123 120 117 116 116 116 113 107 103 111 126 122 107 99 94 97 107 111 111 113 115 116 114 113 115 119 121 124 128 129 129 129 130
136 136 135 133 130 129 130 132 132 129 127 127 127 126 124 121 118 115 114 110 108 109 105 102 97 100 100 112 112 115 115 118 121 121 121 121 121 121 124 127 130 134 136 137
135 135 134 131 129 128 130 130 130 129 126 126 127 127 126 123 119 112 111 127 132 115 104 97 100 105 108 108 114 118 119 119 119 120 122 125 126 129 133 137 140 145 147 153
126 129 129 129 129 128 125 125 128 130 130 130 132 134 135 135 135 134 132 135 124 117 111 113 115 108 104 103 113 119 121 123 125 129 133 135 138 141 146 150 158 160 162 169
118 119 120 120 119 119 120 121 120 124 126 126 130 133 132 128 118 121 130 136 135 123 117 125 118 109 102 105 112 116 121 124 130 135 139 142 146 149 154 157 165 174 181 186
118 119 119 118 116 119 120 119 116 118 119 122 126 129 131 135 139 141 135 137 139 128 124 132 125 114 106 111 120 124 131 139 140 142 146 150 155 161 166 171 177 184 194 205
110 113 115 118 121 125 128 126 126 129 128 124 122 123 122 123 127 131 132 142 144 143 144 144 136 125 123 129 139 144 150 151 147 148 157 160 166 169 177 186 192 197 208 216
98 101 105 106 108 117 123 127 130 133 136 138 137 137 135 132 134 141 142 144 148 154 161 166 164 164 163 165 169 174 171 167 167 170 172 174 177 183 193 196 203 210 217 225
Height
1449 1446 1445 1447 1449 1450 1456 1464 1472 1471 1469 1465 1461 1461 1461 1462 1464 1467 1468 1470 1472 1473 1476 1479 1480 1482 1484 1487 1490 1492 1494 1497 1501 1504 1508 1511 1515 1518 1520 1523 1526 1528 1530 1532
1450 1444 1444 1447 1446 1446 1449 1452 1458 1462 1466 1459 1458 1459 1461 1462 1464 1466 1467 1468 1470 1471 1473 1476 1478 1480 1483 1485 1488 1491 1494 1497 1500 1504 1507 1510 1513 1517 1519 1522 1524 1526 1529 1530
1463 1451 1450 1461 1450 1448 1452 1451 1454 1463 1463 1458 1459 1460 1461 1462 1463 1464 1465 1466 1468 1469 1471 1473 1476 1478 1481 1484 1487 1490 1493 1496 1500 1502 1505 1509 1512 1515 1518 1520 1523 1525 1527 1529
1465 1461 1472 1462 1445 1445 1452 1456 1455 1457 1459 1459 1460 1461 1461 1462 1462 1463 1464 1465 1466 1468 1469 1472 1475 1478 1480 1482 1485 1488 1492 1495 1499 1502 1505 1507 1511 1513 1516 1519 1521 1524 1526 1528
1471 1473 1466 1454 1447 1447 1454 1464 1459 1459 1460 1461 1462 1462 1464 1464 1463 1463 1463 1464 1466 1466 1468 1471 1474 1476 1479 1481 1484 1487 1491 1494 1497 1500 1503 1505 1508 1511 1514 1517 1520 1523 1525 1528
1467 1470 1473 1461 1447 1445 1451 1469 1461 1459 1460 1461 1461 1467 1467 1465 1463 1463 1463 1463 1464 1465 1467 1469 1472 1474 1477 1480 1483 1486 1489 1492 1496 1499 1501 1503 1506 1509 1513 1516 1519 1522 1525 1528
1466 1468 1463 1452 1446 1446 1463 1468 1460 1459 1459 1460 1462 1463 1464 1463 1463 1462 1462 1462 1463 1464 1466 1467 1470 1473 1475 1479 1482 1485 1488 1491 1495 1498 1500 1502 1505 1508 1512 1515 1518 1521 1525 1529
1466 1470 1469 1450 1449 1455 1459 1457 1457 1457 1458 1459 1460 1461 1462 1462 1462 1462 1462 1462 1462 1463 1464 1466 1469 1471 1474 1477 1481 1484 1487 1490 1494 1497 1500 1503 1505 1509 1512 1516 1519 1522 1526 1529
1461 1463 1457 1452 1452 1453 1454 1455 1456 1456 1456 1458 1458 1460 1460 1460 1461 1461 1461 1461 1462 1463 1464 1467 1469 1470 1473 1477 1480 1483 1487 1491 1494 1498 1501 1504 1507 1510 1514 1518 1520 1523 1527 1530
1457 1457 1454 1453 1453 1453 1454 1454 1454 1454 1454 1455 1456 1456 1457 1458 1459 1460 1461 1461 1462 1463 1465 1468 1470 1472 1474 1477 1481 1484 1487 1492 1496 1499 1502 1506 1510 1513 1516 1519 1522 1526 1528 1531
1456 1455 1454 1454 1454 1453 1453 1453 1452 1452 1452 1452 1453 1454 1455 1457 1458 1460 1461 1462 1463 1465 1467 1469 1472 1473 1476 1479 1482 1485 1489 1494 1498 1501 1505 1509 1513 1517 1520 1523 1526 1528 1530 1532
1453 1452 1454 1454 1453 1453 1451 1450 1450 1450 1450 1451 1451 1452 1454 1456 1458 1460 1462 1463 1465 1467 1469 1471 1474 1476 1480 1483 1486 1488 1492 1497 1501 1505 1509 1512 1515 1519 1523 1526 1529 1531 1533 1534
1447 1448 1450 1452 1452 1451 1451 1449 1449 1449 1449 1449 1451 1452 1454 1457 1459 1461 1463 1466 1467 1470 1472 1475 1478 1481 1485 1488 1490 1493 1496 1500 1505 1509 1512 1516 1518 1521 1524 1528 1531 1533 1534 1535
1445 1447 1449 1449 1450 1451 1450 1450 1449 1450 1450 1451 1452 1454 1456 1459 1461 1464 1467 1470 1472 1474 1477 1480 1483 1486 1490 1493 1495 1498 1502 1505 1509 1513 1516 1519 1522 1525 1527 1530 1532 1534 1536 1537
1446 1446 1447 1449 1450 1451 1451 1451 1451 1452 1453 1454 1456 1458 1460 1462 1465 1469 1472 1474 1476 1479 1482 1485 1488 1492 1496 1498 1500 1503 1507 1510 1514 1517 1520 1523 1526 1528 1531 1533 1534 1536 1537 1538
1446 1447 1448 1449 1450 1451 1452 1453 1454 1455 1457 1459 1461 1463 1466 1468 1470 1474 1477 1480 1482 1485 1488 1491 1494 1498 1501 1503 1505 1508 1512 1515 1518 1520 1523 1526 1528 1530 1532 1534 1536 1537 1538 1539
1443 1446 1447 1449 1451 1453 1454 1455 1456 1458 1461 1463 1466 1468 1471 1473 1476 1479 1483 1485 1488 1491 1494 1496 1499 1502 1505 1508 1510 1513 1516 1518 1521 1523 1525 1528 1530 1532 1534 1536 1537 1539 1540 1540
1440 1442 1445 1447 1450 1453 1456 1458 1460 1463 1465 1468 1471 1474 1476 1478 1481 1484 1488 1491 1493 1497 1500 1503 1505 1507 1510 1512 1514 1517 1519 1521 1523 1525 1528 1530 1532 1534 1535 1537 1538 1539 1540 1541
1442 1444 1447 1450 1453 1455 1458 1461 1464 1467 1470 1473 1476 1478 1481 1484 1487 1490 1493 1496 1498 1501 1505 1507 1509 1511 1514 1516 1518 1520 1522 1524 1526 1528 1530 1532 1534 1535 1536 1538 1539 1540 1541 1541
1444 1447 1450 1453 1456 1459 1461 1465 1468 1472 1475 1478 1480 1483 1486 1489 1492 1495 1497 1500 1503 1505 1508 1511 1513 1515 1517 1519 1521 1523 1524 1526 1528 1530 1531 1533 1534 1536 1537 1538 1540 1540 1541 1541
1446 1449 1453 1456 1459 1463 1466 1469 1472 1475 1479 1482 1485 1487 1490 1493 1496 1499 1501 1503 1507 1509 1512 1514 1516 1518 1519 1521 1523 1525 1526 1528 1530 1531 1532 1534 1535 1536 1538 1539 1540 1540 1541 1541
1448 1452 1455 1459 1462 1466 1470 1473 1476 1479 1482 1486 1489 1491 1494 1497 1500 1502 1505 1507 1509 1512 1514 1516 1518 1520 1521 1523 1525 1526 1528 1529 1530 1532 1533 1535 1536 1537 1538 1539 1539 1540 1540 1540
1451 1454 1458 1462 1465 1469 1473 1477 1480 1483 1486 1489 1492 1494 1497 1500 1502 1504 1507 1510 1512 1514 1516 1518 1520 1522 1523 1525 1526 1527 1529 1530 1531 1532 1534 1535 1536 1537 1538 1539 1539 1539 1539 1539
1454 1458 1462 1466 1469 1473 1476 1480 1483 1486 1489 1492 1495 1497 1500 1502 1505 1507 1509 1511 1513 1515 1517 1519 1521 1523 1524 1525 1527 1528 1529 1530 1531 1533 1534 1535 1536 1537 1537 1538 1538 1538 1538 1538
1458 1462 1466 1469 1472 1476 1479 1483 1486 1489 1492 1495 1498 1500 1502 1505 1506 1508 1510 1512 1514 1516 1518 1520 1521 1523 1525 1526 1527 1528 1529 1531 1532 1533 1534 1535 1535 1536 1536 1537 1537 1537 1537 1537
1463 1466 1470 1473 1476 1479 1483 1486 1489 1492 1495 1497 1500 1502 1504 1506 1508 1509 1511 1513 1515 1516 1518 1520 1521 1523 1524 1526 1527 1528 1529 1530 1531 1532 1533 1534 1534 1535 1535 1535 1535 1535 1535 1534
1468 1471 1475 1478 1481 1484 1486 1489 1491 1494 1497 1499 1501 1503 1505 1507 1508 1510 1512 1513 1515 1516 1518 1520 1521 1523 1524 1525 1527 1528 1529 1530 1531 1531 1532 1532 1533 1533 1533 1533 1533 1533 1532 1532